Regional Weather Roundup
Issued by NWS Boston, MA

Home | Current Version | Previous Version | Text Only | Print | Product List | Glossary On
Versions: 1 2 3 4 5 6 7 8 9 10 11 12 13 14 15 16 17 18 19 20 21 22 23 24 25 26 27
000
ASUS41 KBOX 212010
RWRBOX

REGIONAL WEATHER ROUNDUP
NATIONAL WEATHER SERVICE TAUNTON MA
400 PM EDT MON AUG 21 2017

NOTE:  "FAIR" INDICATES FEW OR NO CLOUDS BELOW 12,000 FEET WITH NO
SIGNIFICANT WEATHER AND/OR OBSTRUCTIONS TO VISIBILITY.

MAZALL-212100-
EASTERN MASSACHUSETTS

CITY           SKY/WX    TMP DP  RH WIND       PRES   REMARKS
BOSTON         PTSUNNY   85  63  47 SW13G21   30.08S
BEVERLY        CLOUDY    87  61  41 W10       30.07S
LAWRENCE       SUNNY     87  60  40 SW10      30.09F
BEDFORD        PTSUNNY   82  60  47 W6        30.08S
BLUE HILL        N/A     83  61  47 SW8G17    30.11S
NORWOOD        MOSUNNY   85  64  49 SW8       30.08F
MARSHFIELD     MOSUNNY   86  63  45 SW8       30.08F
PLYMOUTH       MOSUNNY   83  62  49 SW8       30.10F
TAUNTON        MOSUNNY   84  64  50 S6        30.09S
NEW BEDFORD    PTSUNNY   79  65  62 SW9       30.10S
$$

MAZALL-212100-
CAPE COD AND THE ISLANDS

CITY           SKY/WX    TMP DP  RH WIND       PRES   REMARKS
FALMOUTH       PTSUNNY   79  64  61 SW14      30.12S
HYANNIS        MOSUNNY   80  66  62 SW13      30.10S
CHATHAM        SUNNY     79  69  71 SW8       30.12S
PROVINCETOWN   CLOUDY    82  65  56 S10       30.10F
NANTUCKET      SUNNY     76  68  76 SW10      30.13S
MARTHAS VNYRD  PTSUNNY   77  67  71 SW7       30.12F
$$

MAZALL-212100-
CENTRAL AND WESTERN MASSACHUSETTS

CITY           SKY/WX    TMP DP  RH WIND       PRES   REMARKS
WORCESTER      PTSUNNY   80  59  48 SW9       30.14S
FITCHBURG      PTSUNNY   83  63  50 SW6       30.10F
ORANGE         MOSUNNY   81  64  56 SW5       30.11S
SPRINGFIELD    PTSUNNY   84  63  48 SW10      30.08F
WESTFIELD      PTSUNNY   85  60  42 SW10      30.10S
NORTH ADAMS    MOSUNNY   82  64  54 CALM      30.11F
PITTSFIELD     MOSUNNY   79  61  53 SW9       30.14S
$$

RIZALL-212100-
RHODE ISLAND

CITY           SKY/WX    TMP DP  RH WIND       PRES   REMARKS
PROVIDENCE     CLOUDY    86  64  47 SW10      30.11S
NEWPORT        CLOUDY    77  67  71 S9G20     30.12S
BLOCK ISLAND   CLOUDY    76  68  76 SW14      30.14S
WESTERLY       PTSUNNY   80  66  62 SW8       30.13F
$$

CTZALL-212100-
CONNECTICUT

CITY           SKY/WX    TMP DP  RH WIND       PRES   REMARKS
BRADLEY INTL   PTSUNNY   84  62  47 SW10      30.11S
HARTFORD       MOSUNNY   86  62  44 SW10      30.10S
BRIDGEPORT     MOSUNNY   82  66  58 S12       30.12F
DANBURY        CLOUDY    83  64  52 SW7       30.14F
GROTON         CLOUDY    78  65  63 SW14      30.11F
NEW HAVEN      CLOUDY    83  62  49 S7        30.13S
CHESTER        FAIR      81  64  57 CALM      30.14S
MERIDEN        CLOUDY    83  66  56 S5        30.12S
WILLIMANTIC    MOSUNNY   84  64  50 W8        30.11F
OXFORD         CLOUDY    81  66  60 S6        30.16S
$$

MEZ002-015-021-024-NHZ003-005-008-011-012-014-VTZ005-008-212100-
NORTHERN NEW ENGLAND

CITY           SKY/WX    TMP DP  RH WIND       PRES   REMARKS
PORTLAND ME    MOSUNNY   81  63  54 S8        30.05S
BANGOR ME      MOSUNNY   84  63  49 SW10      30.01F
CONCORD NH     SUNNY     85  62  46 VRB6      30.08S
MANCHESTER NH  MOSUNNY   85  59  41 SW7       30.07S
NASHUA NH      SUNNY     84  64  50 VRB5      30.09S
PORTSMOUTH NH  MOSUNNY   84  64  49 W7        30.05F
JAFFREY NH     SUNNY     82  61  48 SW9       30.13F
KEENE NH         N/A    N/A N/A N/A MISG        N/A
BURLINGTON VT  MOSUNNY   84  65  52 S12       30.03F
MT. WASHINGTON FOG       52  52 100 W38G51      N/A  VSB 1/16
$$

NYZ052-076-212100-
EASTERN NEW YORK

CITY           SKY/WX    TMP DP  RH WIND       PRES   REMARKS
ALBANY         MOSUNNY   84  63  49 S9        30.09F
NEW YORK CITY  PTSUNNY   85  66  53 S12       30.13S
$$

ANZALL-212100-
MARINE OBSERVATIONS

STATION/POSITION TIME  TEMP    WIND        PRES    VSBY  WAVE
                       AIR SEA DIR/SP/G                  HT/PER
                 (UTC) (F)     (DEG/KT/KT) (MB)    (MI)  (FT/S)
BOSTON BUOY      1950   71 70  150/ 10/ 10 1018.2F         1/14
BUZZARDS BAY     1900   70     230/ 17/ 18 1020.2F
NANTUCKET SOUND  1950   72 70  220/ 12/ 16 1019.7F         1
MASS BAY-STELLWA 1904   71 66  160/  8/ 10 1017.9F         1/ 8
ISLE OF SHOALS   1900   77     190/ 13/ 14 1018.0F
S OF BLOCK IS    NOT AVBL
$$

......................KEY.........................
  SKY/WX - SKY CONDITION/PRESENT WEATHER
  TMP    - TEMPERATURE IN FAHRENHEIT
  DWPT   - DEWPOINT IN FAHRENHEIT
  RH     - RELATIVE HUMIDITY IN PERCENT
  WIND   - DIRECTION AND SPEED IN MPH
  PRES   - MEAN SEA LEVEL PRESSURE IN INCHES OF HG
  WCI    - WIND CHILL INDEX
  VSB    - VISIBILITY IN MILES
  HX     - HEAT INDEX
  TC     - TEMPERATURE IN CELSIUS
  VRB    - VARIABLE WIND DIRECTION
  N/A    - NOT AVAILABLE




USA.gov is the U.S. government's official web portal to all federal, state and local government web resources and services.